N76SAM VGHS-VECC

Flight info

Callsign N76SAM
Flight time N/A
Altitude 12000
Route IKOGU2 IKOGU A462 BEMAK BEMA2A
Aircraft A20N/M-VGD/A

Departure

Time 2026-04-27 05:36
Airport Hazrat Shahjalal International Airport (VGHS)

Arrival

Time N/A
Airport Netaji Subhash Chandra Bose International Airport (VECC)
Time Latitude Longitude Altitude Speed Heading
2026-04-27 05:36 23.74868 90.41365 4991 ft 266 kts 262°
2026-04-27 05:36 23.74968 90.39351 5022 ft 269 kts 279°
2026-04-27 05:36 23.75288 90.37315 5023 ft 290 kts 279°
2026-04-27 05:37 23.75582 90.34888 5019 ft 351 kts 273°
2026-04-27 05:37 23.75412 90.32090 5010 ft 375 kts 260°
2026-04-27 05:37 23.74706 90.29366 5004 ft 375 kts 247°
2026-04-27 05:37 23.73507 90.26839 5013 ft 374 kts 240°
2026-04-27 05:38 23.72164 90.24411 5013 ft 374 kts 238°
2026-04-27 05:38 23.70758 90.22014 5010 ft 375 kts 237°
2026-04-27 05:38 23.69342 90.19674 5016 ft 374 kts 236°
2026-04-27 05:38 23.67892 90.17315 5018 ft 374 kts 236°
2026-04-27 05:39 23.66433 90.14962 5013 ft 375 kts 236°
2026-04-27 05:39 23.64973 90.12608 5015 ft 374 kts 236°
2026-04-27 05:39 23.63513 90.10259 5009 ft 374 kts 236°
2026-04-27 05:39 23.62060 90.07904 5007 ft 374 kts 237°
2026-04-27 05:40 23.60644 90.05515 5005 ft 374 kts 238°
2026-04-27 05:40 23.59263 90.03119 4996 ft 374 kts 238°
2026-04-27 05:40 23.57894 90.00707 4996 ft 374 kts 238°
2026-04-27 05:40 23.56531 89.98285 4997 ft 374 kts 239°
2026-04-27 05:41 23.55175 89.95863 5002 ft 374 kts 239°
2026-04-27 05:41 23.53822 89.93444 5012 ft 374 kts 239°
2026-04-27 05:41 23.52467 89.91013 5013 ft 374 kts 239°
2026-04-27 05:41 23.51128 89.88614 5014 ft 374 kts 239°
2026-04-27 05:42 23.49774 89.86188 5009 ft 374 kts 239°
2026-04-27 05:42 23.48418 89.83761 5002 ft 374 kts 239°
2026-04-27 05:42 23.47061 89.81330 4992 ft 374 kts 239°
2026-04-27 05:42 23.45708 89.78909 5003 ft 374 kts 239°
2026-04-27 05:43 23.44370 89.76516 5001 ft 374 kts 239°
2026-04-27 05:43 23.43012 89.74093 5008 ft 374 kts 239°
2026-04-27 05:43 23.41657 89.71673 5008 ft 374 kts 239°
2026-04-27 05:43 23.40300 89.69255 5001 ft 374 kts 239°
2026-04-27 05:44 23.38929 89.66840 5006 ft 374 kts 238°
2026-04-27 05:44 23.37539 89.64446 4996 ft 374 kts 238°
2026-04-27 05:44 23.36138 89.62057 4997 ft 374 kts 237°
2026-04-27 05:44 23.34729 89.59670 5005 ft 375 kts 237°
2026-04-27 05:45 23.33315 89.57294 5002 ft 374 kts 237°
2026-04-27 05:45 23.31897 89.54918 4998 ft 374 kts 237°
2026-04-27 05:45 23.30478 89.52543 4993 ft 374 kts 237°
2026-04-27 05:45 23.29126 89.50282 4999 ft 374 kts 237°
2026-04-27 05:46 23.27718 89.47900 5000 ft 374 kts 240°
2026-04-27 05:46 23.26933 89.45229 5000 ft 374 kts 265°
2026-04-27 05:46 23.27305 89.42449 4999 ft 374 kts 291°
2026-04-27 05:46 23.28725 89.40154 5001 ft 374 kts 316°
2026-04-27 05:47 23.30985 89.38713 5012 ft 375 kts 342°